Weather History for KJZI - October, 2013

Change the Weather History Date:

Wednesday, October 9, 2013

  Actual Average (KCHS) Record (KCHS)
Temperature  
Mean Temperature 68 °F 69 °F  
Max Temperature 77 °F 79 °F 90 °F (2009)
Min Temperature 59 °F 59 °F 39 °F (2000)
Degree Days  
Heating Degree Days 0 1  
Month to date heating degree days 9  
Since 1 July heating degree days 12  
Cooling Degree Days 3 5  
Month to date cooling degree days 55  
Year to date cooling degree days 2193  
Growing Degree Days 18 (Base 50)    
Moisture  
Dew Point 58 °F    
Average Humidity 74    
Maximum Humidity 88    
Minimum Humidity 57    
Precipitation  
Precipitation 0.00 in 0.13 in 3.37 in (1971)
Month to date precipitation 1.35  
Year to date precipitation 43.09  
Sea Level Pressure  
Sea Level Pressure 30.06 in    
Wind  
Wind Speed 12 mph (North)    
Max Wind Speed 17 mph    
Max Gust Speed 26 mph    
Visibility 10 miles    
Events      
T = Trace of Precipitation, MM = Missing Value Source: NWS Daily Summary

Daily Weather History Graph

Daily Weather History Graph

Search for Another Location

Airport or City:

Trip Planner

Search our weather history database for the weather conditions in past years. The results will help you decide how hot, cold, wet, or windy it might be!

Date:

Astronomy

Oct. 09, 2013 Rise Set
Actual Time 7:19 AM EDT 6:54 PM EDT
Civil Twilight 6:55 AM EDT 7:18 PM EDT
Nautical Twilight 6:26 AM EDT 7:47 PM EDT
Astronomical Twilight 5:58 AM EDT 8:15 PM EDT
Moon 12:00 PM EDT (10/9) 10:39 PM EDT (10/9)
Length of Visible Light 12h 23m
Length of Day
11h 34m
Waxing Crescent, 25% of the Moon is Illuminated
Oct 9
Waxing Crescent
Oct 11
First Quarter
Oct 18
Full
Oct 26
Last Quarter
Nov 3
New

Hourly Weather History & Observations

Time (EDT) Temp. Dew Point Humidity Pressure Visibility Wind Dir Wind Speed Gust Speed Precip Events Conditions
12:15 AM 60.8 °F 57.2 °F 88% 30.05 in 10.0 mi North 10.4 mph 19.6 mph 0.00 in   Light Drizzle
12:35 AM 60.8 °F 57.2 °F 88% 30.05 in 8.0 mi North 12.7 mph 18.4 mph 0.00 in   Overcast
12:55 AM 60.8 °F 57.2 °F 88% 30.05 in 10.0 mi North 15.0 mph 18.4 mph 0.00 in   Overcast
1:15 AM 60.8 °F 57.2 °F 88% 30.04 in 10.0 mi North 13.8 mph 21.9 mph 0.00 in   Overcast
1:35 AM 60.8 °F 55.4 °F 82% 30.04 in 10.0 mi North 12.7 mph 18.4 mph 0.00 in   Overcast
1:55 AM 60.8 °F 55.4 °F 82% 30.04 in 10.0 mi North 13.8 mph 18.4 mph 0.00 in   Overcast
2:15 AM 60.8 °F 55.4 °F 82% 30.04 in 10.0 mi North 12.7 mph 19.6 mph 0.00 in   Overcast
2:35 AM 60.8 °F 55.4 °F 82% 30.04 in 10.0 mi North 11.5 mph - 0.00 in   Overcast
2:55 AM 60.8 °F 55.4 °F 82% 30.04 in 10.0 mi North 11.5 mph 16.1 mph 0.00 in   Overcast
3:15 AM 60.8 °F 55.4 °F 82% 30.04 in 10.0 mi North 9.2 mph 16.1 mph 0.00 in   Overcast
3:35 AM 60.8 °F 55.4 °F 82% 30.05 in 10.0 mi NNW 11.5 mph 16.1 mph 0.00 in   Overcast
3:55 AM 60.8 °F 55.4 °F 82% 30.05 in 10.0 mi North 10.4 mph - 0.00 in   Overcast
4:15 AM 60.8 °F 55.4 °F 82% 30.05 in 10.0 mi North 9.2 mph 17.3 mph 0.00 in   Overcast
4:35 AM 60.8 °F 55.4 °F 82% 30.05 in 10.0 mi North 11.5 mph - 0.00 in   Overcast
4:55 AM 60.8 °F 55.4 °F 82% 30.05 in 10.0 mi North 13.8 mph - 0.00 in   Overcast
5:15 AM 60.8 °F 55.4 °F 82% 30.05 in 10.0 mi North 11.5 mph 17.3 mph 0.00 in   Overcast
5:35 AM 60.8 °F 55.4 °F 82% 30.05 in 10.0 mi North 15.0 mph 19.6 mph 0.00 in   Overcast
5:55 AM 60.8 °F 53.6 °F 77% 30.05 in 10.0 mi North 13.8 mph - 0.00 in   Overcast
6:15 AM 59.0 °F 53.6 °F 82% 30.05 in 10.0 mi North 12.7 mph - 0.00 in   Overcast
6:35 AM 60.8 °F 53.6 °F 77% 30.06 in 10.0 mi North 11.5 mph - 0.00 in   Overcast
6:55 AM 60.8 °F 53.6 °F 77% 30.06 in 10.0 mi North 12.7 mph 19.6 mph 0.00 in   Overcast
7:15 AM 60.8 °F 55.4 °F 82% 30.07 in 10.0 mi North 10.4 mph - 0.00 in   Overcast
7:35 AM 60.8 °F 55.4 °F 82% 30.08 in 10.0 mi NNW 11.5 mph - 0.00 in   Overcast
7:55 AM 60.8 °F 55.4 °F 82% 30.09 in 10.0 mi NNW 10.4 mph - 0.00 in   Overcast
8:15 AM 60.8 °F 55.4 °F 82% 30.09 in 10.0 mi North 11.5 mph 17.3 mph 0.00 in   Overcast
8:35 AM 62.6 °F 55.4 °F 77% 30.09 in 10.0 mi North 11.5 mph 17.3 mph 0.00 in   Overcast
8:55 AM 62.6 °F 55.4 °F 77% 30.09 in 10.0 mi North 10.4 mph 20.7 mph 0.00 in   Overcast
9:15 AM 64.4 °F 55.4 °F 73% 30.09 in 10.0 mi North 12.7 mph 21.9 mph 0.00 in   Mostly Cloudy
9:35 AM 64.4 °F 55.4 °F 73% 30.09 in 10.0 mi North 15.0 mph - 0.00 in   Mostly Cloudy
9:55 AM 64.4 °F 55.4 °F 73% 30.09 in 10.0 mi North 17.3 mph 26.5 mph 0.00 in   Partly Cloudy
10:15 AM 66.2 °F 55.4 °F 68% 30.09 in 10.0 mi North 15.0 mph 20.7 mph 0.00 in   Clear
10:35 AM 68.0 °F 57.2 °F 68% 30.08 in 10.0 mi North 13.8 mph 19.6 mph 0.00 in   Clear
10:55 AM 68.0 °F 57.2 °F 68% 30.08 in 10.0 mi North 13.8 mph - 0.00 in   Clear
11:15 AM 69.8 °F 57.2 °F 64% 30.08 in 10.0 mi North 13.8 mph 18.4 mph 0.00 in   Clear
11:35 AM 71.6 °F 57.2 °F 60% 30.08 in 10.0 mi North 13.8 mph - 0.00 in   Clear
11:55 AM 71.6 °F 59.0 °F 64% 30.08 in 10.0 mi North 12.7 mph - 0.00 in   Clear
12:15 PM 71.6 °F 59.0 °F 64% 30.07 in 10.0 mi NNW 11.5 mph - 0.00 in   Clear
12:35 PM 73.4 °F 59.0 °F 61% 30.07 in 10.0 mi North 11.5 mph 17.3 mph 0.00 in   Clear
12:55 PM 73.4 °F 59.0 °F 61% 30.06 in 10.0 mi North 12.7 mph 18.4 mph 0.00 in   Clear
1:15 PM 73.4 °F 60.8 °F 65% 30.05 in 10.0 mi North 11.5 mph 18.4 mph 0.00 in   Clear
1:35 PM 75.2 °F 60.8 °F 61% 30.05 in 10.0 mi North 15.0 mph - 0.00 in   Clear
1:55 PM 75.2 °F 60.8 °F 61% 30.04 in 10.0 mi North 11.5 mph 18.4 mph 0.00 in   Clear
2:15 PM 75.2 °F 60.8 °F 61% 30.04 in 10.0 mi North 12.7 mph 21.9 mph 0.00 in   Clear
2:35 PM 75.2 °F 60.8 °F 61% 30.03 in 10.0 mi North 11.5 mph - 0.00 in   Clear
2:55 PM 75.2 °F 60.8 °F 61% 30.03 in 10.0 mi North 12.7 mph 19.6 mph 0.00 in   Clear
3:15 PM 77.0 °F 60.8 °F 57% 30.03 in 10.0 mi NNW 12.7 mph 17.3 mph 0.00 in   Clear
3:35 PM 77.0 °F 60.8 °F 57% 30.02 in 10.0 mi North 15.0 mph 19.6 mph 0.00 in   Clear
3:55 PM 77.0 °F 60.8 °F 57% 30.02 in 10.0 mi North 11.5 mph 18.4 mph 0.00 in   Partly Cloudy
4:15 PM 77.0 °F 60.8 °F 57% 30.03 in 10.0 mi NNW 11.5 mph 18.4 mph 0.00 in   Partly Cloudy
4:55 PM 75.2 °F 60.8 °F 61% 30.03 in 10.0 mi North 10.4 mph 20.7 mph 0.00 in   Clear
5:15 PM 75.2 °F 60.8 °F 61% 30.03 in 10.0 mi North 11.5 mph 20.7 mph 0.00 in   Clear
5:35 PM 73.4 °F 60.8 °F 65% 30.04 in 10.0 mi North 11.5 mph 18.4 mph 0.00 in   Clear
5:55 PM 73.4 °F 60.8 °F 65% 30.04 in 10.0 mi NNW 12.7 mph 18.4 mph 0.00 in   Mostly Cloudy
6:15 PM 73.4 °F 60.8 °F 65% 30.04 in 10.0 mi North 9.2 mph - 0.00 in   Mostly Cloudy
6:35 PM 71.6 °F 60.8 °F 69% 30.04 in 10.0 mi North 10.4 mph - 0.00 in   Partly Cloudy
6:55 PM 71.6 °F 60.8 °F 69% 30.04 in 10.0 mi NNW 9.2 mph - 0.00 in   Clear
7:15 PM 69.8 °F 60.8 °F 73% 30.04 in 10.0 mi North 8.1 mph - 0.00 in   Clear
7:55 PM 69.8 °F 60.8 °F 73% 30.05 in 10.0 mi North 8.1 mph - 0.00 in   Clear
8:15 PM 68.0 °F 60.8 °F 78% 30.05 in 10.0 mi North 6.9 mph - 0.00 in   Partly Cloudy
8:35 PM 68.0 °F 60.8 °F 78% 30.06 in 10.0 mi North 8.1 mph - 0.00 in   Partly Cloudy
8:55 PM 68.0 °F 59.0 °F 73% 30.06 in 10.0 mi North 9.2 mph - 0.00 in   Clear
9:15 PM 66.2 °F 59.0 °F 78% 30.06 in 10.0 mi NNW 3.5 mph - 0.00 in   Clear
9:35 PM 66.2 °F 59.0 °F 78% 30.07 in 10.0 mi NNW 6.9 mph - 0.00 in   Clear
9:55 PM 66.2 °F 59.0 °F 78% 30.07 in 10.0 mi North 6.9 mph - 0.00 in   Clear
10:15 PM 66.2 °F 59.0 °F 78% 30.07 in 10.0 mi North 5.8 mph - 0.00 in   Clear
10:35 PM 66.2 °F 59.0 °F 78% 30.07 in 10.0 mi NNW 4.6 mph - 0.00 in   Clear
10:55 PM 64.4 °F 59.0 °F 83% 30.07 in 10.0 mi NW 4.6 mph - 0.00 in   Clear
11:15 PM 64.4 °F 60.8 °F 88% 30.06 in 10.0 mi NNW 5.8 mph - 0.00 in   Clear
11:35 PM 64.4 °F 59.0 °F 83% 30.06 in 10.0 mi NNW 4.6 mph - 0.00 in   Scattered Clouds
11:55 PM 64.4 °F 60.8 °F 88% 30.06 in 10.0 mi Calm Calm - 0.00 in   Overcast